Regional Weather Roundup
Issued by NWS Green Bay, WI

Home | Current Version | Previous Version | Text Only | Print | Product List | Glossary On
Versions: 1 2 3 4 5 6 7 8 9 10 11 12 13 14 15 16 17 18 19 20 21 22 23 24 25 26 27 28 29 30 31 32 33 34 35 36 37 38 39 40 41 42 43 44 45 46 47 48 49 50
000
ASUS43 KGRB 030200
RWRGRB

NORTH-CENTRAL AND NORTHEAST WISCONSIN REGIONAL WEATHER ROUNDUP
NATIONAL WEATHER SERVICE GREEN BAY WI
900 PM CDT SUN AUG 02 2015

WIZ005-009-010>012-018-019-030300-
NORTH CENTRAL WISCONSIN

CITY           SKY/WX    TMP DP  RH WIND       PRES   REMARKS
IRONWOOD       MOCLDY    64  54  68 W8        29.68R
MANITOWISH WTR NOT AVBL
ARBOR VITAE    NOT AVBL
EAGLE RIVER    NOT AVBL
LAND O LAKES   NOT AVBL
RHINELANDER    PTCLDY    61  58  90 W6        29.73R
PHILLIPS       MOCLDY    64  56  75 CALM      29.73R
ANTIGO         NOT AVBL
TOMAHAWK       MOCLDY    64  57  76 NW3       29.73R
MERRILL        NOT AVBL
$$

WIZ013-073-030300-
NORTHEAST WISCONSIN

CITY           SKY/WX    TMP DP  RH WIND       PRES   REMARKS
IRON MOUNTAIN  CLOUDY    64  57  78 CALM      29.66R
MARINETTE      PTCLDY    63  57  82 CALM      29.65R
$$

WIZ017-030-035>037-045-030300-
CENTRAL WISCONSIN

CITY           SKY/WX    TMP DP  RH WIND       PRES   REMARKS
MEDFORD        NOT AVBL
WAUSAU         CLEAR     72  58  61 NW7       29.68R
MOSINEE        NOT AVBL
MARSHFIELD     CLEAR     68  57  68 NW7       29.71R
WISC RAPIDS    PTCLDY    71  58  63 NW6       29.70R
STEVENS POINT  NOT AVBL
WAUPACA        PTCLDY    71  67  86 NE3       29.68R
SHAWANO        NOT AVBL
CLINTONVILLE   CLEAR     64  63  94 CALM      29.67R
$$

WIZ038-039-048-051-030300-
FOX VALLEY

CITY           SKY/WX    TMP DP  RH WIND       PRES   REMARKS
NWS GREEN BAY  MOCLDY    65  64  97 W6        29.66R
APPLETON       PTCLDY    68  57  68 CALM      29.68R
OSHKOSH        PTCLDY    68  62  81 CALM      29.66S
FOND DU LAC    PTCLDY    70  63  78 N3        29.67R
$$

WIZ022-050-052-030300-
EAST CENTRAL WISCONSIN

CITY           SKY/WX    TMP DP  RH WIND       PRES   REMARKS
STURGEON BAY   MOCLDY    63  57  82 CALM      29.68R
MANITOWOC      NOT AVBL
SHEBOYGAN      CLOUDY    66  62  87 MISG      29.65S
$$

LMZ563-521-522-541>543-030300-
LAKESHORE

STATION/POSITION TIME  TEMP    WIND        PRES    VSBY  WAVE
                       AIR SEA DIR/SP/G                  HT/PER
                 (UTC) (F)     (DEG/KT/KT) (MB)    (MI)  (FT/S)
SHEBOYGAN LKSHOR 0100   62      CALM  /  2 1003.6R
KEWAUNEE LKSHORE 0100   66     290/  4/  7 1002.8R
ALGOMA MARINA    0112           CALM  /  3   N/A
TWO RIVERS CG    0125   67                 1003.9      6   2
NORTHPORT PIER   0100   66     280/  3/  6 1003.0R
N MID LAKE BUOY  0050   67 68  300/  8/  8 1001.9R         2/ 5
S GREEN BAY BUOY 0100   65 70  290/  6/  6 1004.8R
CHAMBERS ISLAND  0100   66     240/  3/  6 1003.4R
MENOMINEE LKSHOR 0100   66     270/  5/  7 1004.1R
$$



USA.gov is the U.S. government's official web portal to all federal, state and local government web resources and services.